Simultaneous Nadir Overpasses (SNOs) Predictions

Prediction of SNOs between GOES-17 and NOAA-19 Satellite Orbit:

Table of predicted SNOs for the next 14.0 days since TLE Epoch: 10/21/2023
Index Date Time (GOES-17) GOES-17 Lat,Lon NOAA-19 Lat,Lon Distance(km) Time Diff (sec)
1 10/21/2023 04:07:00 -0.01,-104.67 -0.92,-108.60 448.71 80
2 10/22/2023 03:54:54 -0.00,-104.66 -0.23,-105.65 112.98 80
3 10/23/2023 03:40:07 -0.00,-104.66 0.45,-102.71 222.83 80
4 10/25/2023 16:00:02 -0.00,-104.67 0.65,-107.44 316.23 80
5 10/26/2023 15:50:36 -0.00,-104.67 -0.05,-104.50 20.26 80
6 10/27/2023 15:38:28 -0.00,-104.67 -0.70,-101.54 356.76 80
7 10/30/2023 03:58:23 0.01,-104.65 -0.38,-106.27 185.96 80
8 10/31/2023 03:43:37 0.01,-104.64 0.32,-103.33 150.16 80
9 11/01/2023 03:31:30 0.01,-104.64 1.02,-100.39 486.26 80
10 11/02/2023 16:03:29 0.02,-104.65 0.78,-108.05 387.80 80
11 11/03/2023 15:51:22 0.02,-104.65 0.11,-105.10 51.07 80
